FENGYUN 3A

Last updated on Sun Oct 06 2024 00:02:17 GMT+0000 (Coordinated Universal Time)

1 32958U 08026A 24279.58384928 .00001089 00000+0 53978-3 0 9996 2 32958 98.6144 223.5634 0009761 110.9265 249.2957 14.19217773847507
UTC large
Height (km)
Speed (km/s)
/
Latitude / Longitude
Inclination (degrees)
Orbital Period (minutes)
Azimuth
Elevation
Range (km)
Doppler Factor

Next 0 passes for location: London (51.5072 / 0.1276)

Sorry there are no passes over London.